www.pogodaiklimat.ru

Погода и климат >> Архив погоды >> Мексика >> Zamora


ПОГОДА в Zamora

  • Прогноз погоды в Zamora
  • Монитор погоды в Zamora
  • Климат города

АРХИВ ПОГОДЫ в Zamora

Время (UTC), дата Ветер
(напр.,м/с)
 
Видим.   Явления Облачность Т
(С)
Тd
(С)
f
(%)
Тe
(С)
Тes
(С)
Комфортность P
(гПа)
Po
(гПа)
Тmin
(С)
Tmax
(С)
R
(мм)
R24
(мм)
S
(см)
03 13.11 ЮЗ 1 10 км ясно +19.2 +10.6 57 +21 +21 комфорт 1009.6 846.9
06 13.11 В 5 10 км ясно +18.6 +12.7 69 +19 +19 1012.7 848.8 +9.5 +28.5
09 13.11 ЮВ 3 10 км ясно +16.2 +11.1 72 +16 +16 1013.9 848.6
12 13.11 ЮВ 2 10 км ясно +14.2 +11.3 83 +14 +14 1015.7 848.7 +9.5 +28.5
15 13.11 ЮЗ 1 20 км мгла {туман} 1/1 600 м
[Cu med, cong]
+22.2 +9.3 44 +24 +27 комфорт 1017.1 849.6
18 13.11 В 3 18 км мгла {туман} 1/1 630 м
[Cu med, cong]
+24.6 +12.8 48 +27 +36 жарко 1016.7 849.9 +13.2 +25.8
21 13.11 СВ 4 18 км 4/4 800 м
[Cu med, cong]
+28.0 +10.7 34 +29 +32 жарко 1011.5 846.8
00 14.11 В 4 18 км ясно +25.0 +9.8 38 +26 +26 жарко 1009.1 846.1 +13.2 +29.2
03 14.11 В 4 10 км ясно +19.0 +10.0 56 +20 +20 1011.1 848.1
06 14.11 В 2 10 км ясно +17.2 +6.9 51 +18 +18 1013.9 849.8 +13.2 +29.2
09 14.11 В 1 10 км ясно +14.6 +8.1 65 +15 +15 1014.9 849.1
12 14.11 В 1 10 км ясно +13.0 +9.7 80 +13 +13 1016.7 849.0 +12.4 +29.2
15 14.11 В 1 20 км мгла {туман} ясно +22.0 +9.3 44 +23 +27 комфорт 1017.1 849.6
18 14.11 В 1 18 км мгла {туман} ясно +24.8 +9.1 37 +25 +40 комфорт 1016.3 848.9 +11.2 +27.6
21 14.11 СВ 4 18 км ясно +28.4 +10.7 33 +29 +35 жарко 1011.5 846.8
00 15.11 ЮВ 1 18 км ясно +24.8 +8.7 36 +25 +25 комфорт 1007.7 845.0 +11.2 +30.2
03 15.11 ЮЗ 1 10 км ясно +20.2 +11.0 55 +23 +23 комфорт 1008.7 846.2
06 15.11 З 1 10 км ясно +14.6 +9.6 72 +15 +15 1011.0 847.4 +11.2 +30.2
09 15.11 СВ 1 10 км ясно +11.6 +8.9 83 +11 +11 1011.8 846.9
12 15.11 СЗ 1 10 км ясно +10.6 +8.5 87 +10 +10 1015.3 847.0 +10.0 +30.2
15 15.11 В 1 19 км мгла {туман} ясно +15.8 +9.9 68 +17 +20 1019.0 849.0
18 15.11 З 1 20 км ясно +26.4 +8.8 33 +27 +41 жарко 1016.4 847.9 +8.4 +26.8
21 15.11 В 2 20 км ясно +28.0 +8.1 29 +28 +36 жарко 1010.9 845.2
00 16.11 В 2 20 км ясно +25.2 +8.9 36 +26 +26 жарко 1007.8 844.6 +8.4 +30.0
03 16.11 В 1 10 км ясно +23.0 +10.4 45 +25 +25 комфорт 1008.4 846.4
06 16.11 В 1 10 км ясно +15.0 +10.1 72 +16 +16 1011.0 847.7 +8.4 +30.0
09 16.11 СЗ 1 10 км ясно +11.6 +7.8 77 +12 +12 1014.4 848.7
12 16.11 С 1 10 км ясно +9.0 +7.2 88 +8 +8 1016.8 848.6 +8.0 +30.0
15 16.11 В 1 18 км ясно +13.6 +5.7 59 +14 +17 1019.8 849.6
18 16.11 ЮЗ 1 20 км ясно +25.0 +9.0 36 +26 +40 жарко 1017.7 848.5 +8.0 +27.0
21 16.11 СЗ 2 20 км ясно +28.8 +9.3 30 +29 +37 жарко 1011.7 845.3
00 17.11 Ю 2 20 км ясно +20.0 +10.4 54 +22 +22 комфорт 1009.2 845.0 +8.0 +30.2
03 17.11 В 2 10 км ясно +15.2 +6.9 58 +15 +15 1011.0 847.0
06 17.11 В 1 10 км ясно +13.6 +4.9 56 +14 +14 1013.5 848.1 +8.0 +30.2
09 17.11 З 1 10 км ясно +9.8 +6.2 78 +9 +9 1015.6 847.7
12 17.11 СЗ 1 10 км ясно +7.2 +4.9 85 +6 +6 1018.3 847.9 +6.6 +30.2
15 17.11 Ю 1 20 км ясно +12.6 +4.1 56 +13 +16 1021.8 850.0
18 17.11 З 2 20 км ясно +24.8 +10.6 41 +26 +38 жарко 1021.1 850.4 +6.6 +26.0
21 17.11 С 2 20 км 1/1 660 м
[Cu med, cong]
+28.6 +4.6 22 +27 +35 жарко 1015.4 847.8
00 18.11 В 2 20 км 1/1 600 м
[Cu med, cong]
+28.0 +1.8 18 +26 +26 жарко 1008.7 844.7 +6.6 +32.4
03 18.11 В 1 10 км ясно +16.0 +10.9 72 +17 +17 1009.6 846.7
06 18.11 В 1 10 км ясно +13.6 +8.1 69 +14 +14 1011.7 847.6 +6.6 +32.4
12 18.11 СВ 1 10 км ясно +7.8 +7.1 95 +7 +7 1016.7 847.0 +7.0 +32.4
15 18.11 СЗ 1 18 км мгла ясно +13.2 +9.9 80 +13 +17 1019.5 848.2
18 18.11 ЮЗ 1 18 км ясно +28.4 +7.8 27 +28 +42 жарко 1016.6 847.1 +8.0 +29.8
21 18.11 З 2 18 км мгла ясно +31.4 +8.8 25 +31 +39 жарко 1009.8 843.8
00 19.11 З 2 18 км мгла ясно +27.6 +8.0 29 +27 +27 жарко 1006.0 843.3 +8.0 +32.6
03 19.11 В 1 10 км ясно +17.2 +8.5 57 +18 +18 1006.5 845.0
06 19.11 С 1 10 км ясно +13.0 +7.8 71 +13 +13 1009.9 846.7 +8.0 +32.6
09 19.11 В 1 10 км ясно +9.4 +5.3 76 +9 +9 1011.9 845.8
12 19.11 З 1 10 км ясно +7.2 +5.7 90 +6 +6 1015.3 846.0 +6.4 +32.6
15 19.11 В 1 18 км мгла {туман} ясно +14.0 +9.9 76 +14 +18 1019.4 848.6
18 19.11 Ю 3 18 км мгла {туман} ясно +24.0 +5.7 31 +24 +34 комфорт 1018.1 847.9 +5.4 +25.4
21 19.11 СЗ 1 18 км 1/1 800 м
[Cu hum]
+29.0 +8.3 27 +28 +37 жарко 1011.2 844.4
00 20.11 З 3 18 км ясно +25.0 +11.8 44 +27 +27 жарко 1008.4 844.3 +5.4 +31.0

 

Местоположение метеостанции Zamora (Мексика): широта 19.98 долгота -102.30 высота над уровнем моря 1562 м.

В архиве по умолчанию представлена погода в Zamora за последнюю неделю. Архивные данные за месяц целиком и за предыдущие месяцы, начиная с января 2011 года, Вы можете получить, выбрав интересующий диапазон дат из раскрывающегося списка и нажав кнопку "Ввод!".

Внимание! Время в таблицах - всемирное. Для получения местного времени необходимо прибавить поправку, которая в Zamora равна -6 ч.

Смотрите также архив погоды в соседних городах и на ближайших метеорологических станциях:

Погода в Ciudad Guzman (Мексика) (119 км)
Погода в Morelia (Мексика) (129 км)
Погода в Guadalajara (Мексика) (129 км)
Погода в Colima (Мексика) (148 км)
Погода в Lagos De Moreno (Мексика) (157 км)
Погода в Guanajuato (Мексика) (161 км)
Погода в Queretaro (Мексика) (209 км)
Погода в Aguascalientes (Мексика) (210 км)
Погода в Manzanillo (Мексика) (234 км)
Погода в Colotlan (Мексика) (256 км)

Пояснения к столбцам:

Ветер - указаны скорость ветра в м/с - средняя за 10 мин, порывы в срок и между сроками (в фигурных скобках) и направление, откуда дует ветер: С - северный, СВ - северо-восточный, В - восточный, ЮВ - юго-восточный, Ю - южный, ЮЗ - юго-западный, З - западный, СЗ - северо-западный.
Видимость - горизонтальная дальность видимости в метрах или километрах. При видимости от 1 до 10 км при отсутствии осадков обычно наблюдается дымка, при ухудшении видимости до 1 км и менее - туман. В сухую погоду видимость может ухудшаться дымом, пылью или мглою.
Явления - указаны атмосферные явления, наблюдавшиеся в срок или в последний час перед сроком; фигурными скобками обозначены явления, наблюдавшиеся между сроками (за 1-3 часа до срока); квадратными скобками обозначены град или гололедные отложения с указанием их диаметра в мм.
Облачность - указаны через наклонную черту общая и нижняя облачность в баллах и высота нижней границы облаков в метрах; квадратными скобками обозначены формы облаков: Ci - перистые, Cs - перисто-слоистые, Cc - перисто-кучевые, Ac - высококучевые, As - высокослоистые, Sc - слоисто-кучевые, Ns - слоисто-дождевые, Cu - кучевые, Cb - кучево-дождевые. Подробнее классификацию облаков см. в Атласе облаков (PDF).
T - Температура воздуха - температура, измеренная на высоте 2 м над землей.
Td - Температура точки росы - температура, при понижении до которой содержащийся в воздухе водяной пар достигнет насыщения.
f - Относительная влажность воздуха - влажноcть воздуха, измеренная на высоте 2 м над землей.
Te - Эффективная температура - температура, которую ощущает одетый по сезону человек в тени. Характеристика душности погоды. При расчете учитывается влияние влажности воздуха и скорости ветра на теплоощущения человека.
Tes - Эффективная температура на солнце - температура, которую ощущает человек, с поправкой на солнечный нагрев. Характеристика знойности погоды. Зависит от высоты солнца над горизонтом, облачности и скорости ветра. Ночью, в пасмурную погоду, а также при ветре 12 м/с и более поправка равна нулю.
P - Атмосферное давление - приведенное к уровню моря атмосферное давление.
Po - Атмосферное давление - измеренное на уровне метеостанции атмосферное давление.
Tmin - Минимальная температура - минимум температуры воздуха на высоте 2 м над землей.
Tmax - Максимальная температура - максимум температуры воздуха на высоте 2 м над землей.
R - Количество осадков - Количество выпавших осадков за период времени, мм. При наведении курсора мыши на число - период времени, за который выпало указанное количество осадков.
R24 - Количество осадков - Количество выпавших осадков за 24 часа, мм.
S - Снежный покров - Высота снежного покрова, см. При наведении курсора мыши на число - состояние снежного покрова и степень покрытия местности в баллах.